Regional Weather Roundup
Issued by NWS

Home | Current Version | Previous Version | Text Only | Print | Product List | Glossary On
Versions: 1 2 3 4 5 6 7 8 9 10 11 12 13 14 15 16 17 18 19 20 21 22 23 24 25 26 27 28 29 30 31 32 33 34 35 36 37 38 39 40 41 42 43 44 45 46 47 48 49 50
000
ASUS43 KTOP 111608
RWRKS

WEATHER ROUNDUP FOR KANSAS
NATIONAL WEATHER SERVICE GOODLAND KS
1100 AM CDT FRI JUL 11 2014

NOTE:  "FAIR" INDICATES FEW OR NO CLOUDS BELOW 12,000 FEET WITH NO
SIGNIFICANT WEATHER AND/OR OBSTRUCTIONS TO VISIBILITY.

KSZ001>006-013>018-027>032-041>047-111700-
NORTHWEST KANSAS

CITY           SKY/WX    TMP DP  RH WIND       PRES   REMARKS
GOODLAND       SUNNY     83  57  41 S9        30.02S
HAYS           MOSUNNY  N/A N/A N/A SW18      29.99R
HILL CITY      SUNNY     81  65  58 CALM      29.99F
RUSSELL        MOSUNNY   86  63  45 SW12      29.98R
$$

KSZ061>065-074>080-084>089-111700-
SOUTHWEST KANSAS

CITY           SKY/WX    TMP DP  RH WIND       PRES   REMARKS
DODGE CITY     SUNNY     87  58  37 SW17      30.04S
ELKHART          N/A     86  55  34 S20         N/A
GARDEN CITY    SUNNY     87  59  38 S17       30.02R
GREAT BEND     SUNNY     88  63  42 SW13      29.99S
LIBERAL        SUNNY     90  57  33 SW18G25   30.07S
PRATT          SUNNY     84  61  45 SW14G20   30.04S
$$

KSZ066>073-081>083-090>101-111700-
SOUTHEAST KANSAS

CITY           SKY/WX    TMP DP  RH WIND       PRES   REMARKS
CHANUTE        SUNNY     83  70  64 SW16      30.07F
COFFEYVILLE    SUNNY     83  71  67 S13       30.08R
HUTCHINSON     SUNNY     85  66  53 S14       30.02S
MEDICINE LODGE   N/A     86  65  49 SW9       30.02S
NEWTON         SUNNY     82  64  54 SW13G20   30.07R
PARSONS        SUNNY     84  71  65 S13G18    30.09S
WICHITA INTL   MOSUNNY   85  67  54 SW15      30.03R
WICHITA JABRA  SUNNY     83  70  64 S10       30.03S
WICHITA MCCONL SUNNY     83  70  63 S14       30.05R
WINFIELD       SUNNY     85  71  63 S13       30.06S
$$

KSZ007>012-019>026-033>040-048>060-102>105-111700-
NORTHEAST KANSAS

CITY           SKY/WX    TMP DP  RH WIND       PRES   REMARKS
CONCORDIA      MOSUNNY   80  69  69 SE6       30.00S
EMPORIA        MOSUNNY   85  70  60 S13G21    30.04S
LAWRENCE       PTSUNNY   83  70  64 SW9       30.04S
MANHATTAN      PTSUNNY   84  67  56 SW6       30.01S
MARYSVILLE     PTSUNNY   79  68  69 S6        30.02S
OLATHE IND     MOSUNNY   82  70  66 S16G24    30.06S
OLATHE EXE     MOSUNNY   79  71  76 S12G18    30.05F
SALINA         MOSUNNY   88  65  46 SW13      30.00R
TOPEKA BILLARD PTSUNNY   82  68  62 S8        30.04R
TOPEKA FORBES  MOSUNNY   81  68  64 SW9       30.05R
$$


USA.gov is the U.S. government's official web portal to all federal, state and local government web resources and services.